OBJECT F, 63330

Orbit data source: Space-Track

You're viewing an Uncataloged Satellite

Recently launched and/or uncataloged satellites may have evolving metadata. Metadata may include but not limited to: Owner, Maufacturer, Bus, Motor, and Mission.

OBJECT F, 63330 is a satellite owned by MO RF (CIS) in LEO that was launched on Wed, 05 Feb 2025 UTC via a SOYUZ-2-1V launch vehicle from the Plesetsk Missile And Space Complex (PKMTR). Unknown objects in Earth's orbit typically refer to objects detected orbiting the Earth but have not yet been identified or cataloged. These objects could be anything from previously untracked satellites, spent rocket stages, debris from satellite collisions, or even natural meteoroids temporarily captured by Earth's gravity.

Loading next visibility...
Identifier
63330, 2025-026F
Orbit
LEO
Country
Flag of CISCIS
Related business
Manufacturer
VNIIEM
Mission
Defense Imaging
Bus & Motor
EMKA, Unknown motor
Mass
Unknown
Launch date (UTC)
2025-02-05 (9 months ago)
Launch vehicle
SOYUZ-2-1V
Launch site
Plesetsk Missile And Space Complex (PKMTR)
Object type
Unknown
Shape & HBR
Unknown shape, 0.4 m
Radar Cross Section
Medium (>0.1 m² and <1 m²)

Expand to show TLE details & history
Last TLE update: 1 day ago

TLE from 1 day ago
0 OBJECT F
1 63330U 25026F   25308.49631970  .00003968  00000-0  35586-3 0  9993
2 63330  81.9916 303.2842 0014392  89.0593 271.2275 14.95470600 34443
Epoch: 2025-11-04T11:54Z
TLE epoch observation values (Epoch: 2025-11-04T11:54:42.022Z)
Latitude
-0.00009°
Longitude
80.62659°
Altitude
583.752 km
Speed
7.569 km/s
True Right ascension
20h 13m 08s
True Declination
0° 00' 00"
Sunlit
Object was in daylight at epoch
Visualization orbit readout
Latitude
Unknown
Longitude
Unknown
Altitude
Unknown
Speed
Unknown
Apparent Right ascension
Unknown
Apparent Declination
Unknown
Sunlit
N/A
Visualization observer readout
Local Sidereal Time
11:06:24
Azimuth
Unknown
Elevation
Unknown
Doppler factor
Unknown
Orbital elements
Apogee altitude
587.949 km
Perigee altitude
567.926 km
Semi-major axis
6,956.075 km
Eccentricity
0.00144
Inclination
81.9916°
RAAN
303.2842°
Arg. of periapsis
89.0593°
True anomaly
271.06261°
Mean anomaly
271.2275°
Eccentric anomaly
271.14506°
Mean motion
3.74108 °/min
Orbital period
96.23 mins
BSTAR
0.00035586
Loading maneuver chart data...
Computing Atmospheric mass density...
Loading historical data...
Loading historical data...
Loading historical data...
Loading historical data...
Loading historical data...
Loading historical data...
Loading historical data...

Documentation

Showing up to 5 results
|